Deer Park, WA
on Tuesday, January 8, 2013

Tuesday
Previous Day Next Day
Daily Summary
 ActualAverageRecord
Temperature
Mean Temperature °F 26°F  
Max Temperature 41°F 32°F 43°F (2002)
Min Temperature 23°F 20°F 8°F (2011)
Degree Days
Heating Degree Days 33 39  
Month to date heating degree days 339 315  
Since 1 July heating degree days 3132 3542  
Cooling Degree Days 0 0  
Month to date cooling degree days 0 0  
Year to date cooling degree days 0 0  
Moisture
Dew Point 32°F   
Average Humidity 93    
Maximum Humidity 100    
Minimum Humidity 85    
Precipitation
Precipitation 0.24 in 0.10 in 0.41 in (2014)
Month to date precipitation 0.99 0.83  
Year to date precipitation 0.99 0.83  
Wind
Wind Speed 3 mph   
Max Wind Speed 15 mph   
Max Gust Speed 22 mph   
Visibility 4 miles   
Events Fog , Rain , Snow   

Key: T is trace of precipitation, MM is missing value
Source: NWS Daily Summary
Time(PST)TemperatureDew PointHumidity Pressure Visibility Wind DirectionWind SpeedGust SpeedPrecipitationEvents Conditions
12:53 AM 30.0°F 28.0°F 92% 30.04 in 10.0 miles South 9.2 mph - N/A   Clear
1:53 AM 28.0°F 26.1°F 92% 30.07 in 10.0 miles SE 4.6 mph - N/A   Clear
2:53 AM 28.0°F 26.1°F 92% 30.09 in 10.0 miles SSE 8.1 mph - N/A   Clear
3:53 AM 27.0°F 25.0°F 92% 30.11 in 10.0 miles South 6.9 mph - N/A   Clear
4:53 AM 26.1°F 24.1°F 92% 30.11 in 10.0 miles Calm Calm - N/A   Clear
6:53 AM 26.1°F 26.1°F 100% 30.14 in 10.0 miles Calm Calm - N/A   Overcast
7:53 AM 26.1°F 25.0°F 96% 30.15 in 2.5 miles Calm Calm - N/A   Overcast
8:09 AM 24.8°F 24.8°F 100% 30.09 in 10.0 miles Calm Calm - N/A   Overcast
8:53 AM 27.0°F 26.1°F 96% 30.17 in 10.0 miles Calm Calm - N/A   Overcast
9:53 AM 32.0°F 30.0°F 92% 30.16 in 10.0 miles SSE 5.8 mph - N/A   Overcast
10:48 AM 33.8°F 30.2°F 87% 30.08 in 1.8 miles SSE 4.6 mph - 0.00 in Snow Light Snow
10:49 AM 33.1°F 30.9°F 92% 30.14 in 1.8 miles SSE 4.6 mph - 0.00 in Snow Light Snow
11:02 AM 33.8°F 30.2°F 87% 30.08 in 2.0 miles South 4.6 mph - 0.00 in Snow Light Snow
11:05 AM 33.8°F 30.2°F 87% 30.08 in 1.8 miles SSE 4.6 mph - 0.00 in Snow Light Snow
11:22 AM 33.8°F 32.0°F 93% 30.08 in 0.8 miles Calm Calm - 0.01 in Snow Light Snow
11:33 AM 33.8°F 32.0°F 93% 30.07 in 0.8 miles SSE 3.5 mph - 0.01 in Snow Light Snow
11:53 AM 33.1°F 32.0°F 96% 30.12 in 0.5 miles SE 3.5 mph - 0.03 in Fog , Snow Snow
12:05 PM 33.8°F 32.0°F 93% 30.05 in 0.5 miles ESE 3.5 mph - 0.01 in Fog , Snow Snow
12:20 PM 33.8°F 32.0°F 93% 30.04 in 0.8 miles Calm Calm - 0.02 in Snow Light Snow
12:43 PM 33.8°F 32.0°F 93% 30.03 in 0.8 miles ESE 3.5 mph - 0.04 in Snow Light Snow
12:53 PM 33.1°F 32.0°F 96% 30.09 in 0.5 miles ESE 3.5 mph - 0.04 in Fog , Snow Snow
1:15 PM 33.8°F 32.0°F 93% 30.01 in 1.2 miles East 3.5 mph - 0.01 in Snow Light Snow
1:53 PM 33.1°F 32.0°F 96% 30.07 in 1.2 miles Calm Calm - 0.03 in Snow Light Snow
2:03 PM 33.8°F 32.0°F 93% 30.00 in 0.8 miles Calm Calm - 0.01 in Snow Light Snow
2:13 PM 33.8°F 32.0°F 93% 30.00 in 1.0 miles Calm Calm - 0.01 in Snow Light Snow
2:53 PM 33.1°F 32.0°F 96% 30.05 in 1.2 miles Calm Calm - 0.02 in Snow Light Snow
3:03 PM 33.8°F 32.0°F 93% 29.99 in 1.2 miles Calm Calm - 0.00 in Snow Light Snow
3:27 PM 33.8°F 32.0°F 93% 29.97 in 1.0 miles Calm Calm - 0.01 in Snow Light Snow
4:01 PM 33.8°F 32.0°F 93% 29.96 in 1.2 miles Calm Calm - 0.00 in Snow Light Snow
4:10 PM 33.8°F 32.0°F 93% 29.95 in 1.2 miles Calm Calm - 0.00 in Snow Light Snow
4:26 PM 33.8°F 32.0°F 93% 29.95 in 1.2 miles NE 3.5 mph - 0.01 in Snow Light Snow
4:40 PM 33.8°F 33.8°F 100% 29.94 in 2.5 miles Calm Calm - 0.01 in Snow Light Snow
4:50 PM 33.8°F 32.0°F 93% 29.94 in 2.5 miles Calm Calm - 0.02 in Snow Light Snow
4:53 PM 33.1°F 32.0°F 96% 30.00 in 2.5 miles Calm Calm - 0.02 in   Overcast
5:20 PM 33.8°F 33.8°F 100% 29.92 in 1.8 miles Calm Calm - 0.01 in   Overcast
5:32 PM 33.8°F 33.8°F 100% 29.91 in 2.5 miles Calm Calm - 0.01 in   Overcast
5:37 PM 33.8°F 33.8°F 100% 29.91 in 1.8 miles Calm Calm - 0.01 in   Overcast
5:53 PM 33.1°F 32.0°F 96% 29.96 in 1.8 miles Calm Calm - 0.02 in Rain Light Rain
6:31 PM 32.0°F 32.0°F 100% 29.87 in 2.0 miles Calm Calm - 0.04 in   Overcast
6:44 PM 33.8°F 33.8°F 100% 29.87 in 3.0 miles Calm Calm - 0.05 in Rain Light Rain
6:53 PM 33.1°F 32.0°F 96% 29.94 in 3.0 miles NW 3.5 mph - 0.05 in Rain Light Rain
7:25 PM 33.8°F 33.8°F 100% 29.86 in 1.8 miles Calm Calm - 0.01 in   Overcast
7:51 PM 33.8°F 32.0°F 93% 29.85 in 0.8 miles Calm Calm - 0.01 in   Mist
7:53 PM 34.0°F 33.1°F 96% 29.91 in 0.8 miles Calm Calm - 0.01 in   Mist
8:50 PM 33.8°F 33.8°F 100% 29.85 in 2.5 miles Calm Calm - N/A   Overcast
8:59 PM 35.6°F 35.6°F 100% 29.85 in 1.8 miles South 3.5 mph - N/A   Overcast
9:05 PM 33.8°F 33.8°F 100% 29.85 in 0.8 miles Variable 3.5 mph - N/A   Overcast
9:13 PM 35.6°F 35.6°F 100% 29.85 in 0.5 miles SSE 3.5 mph - N/A Fog Fog
9:20 PM 35.6°F 35.6°F 100% 29.84 in 1.0 miles SSE 3.5 mph - N/A   Overcast
9:30 PM 35.6°F 35.6°F 100% 29.84 in 3.0 miles SE 5.8 mph - N/A   Overcast
9:53 PM 37.0°F 36.0°F 96% 29.88 in 10.0 miles SSE 8.1 mph - N/A   Overcast
10:02 PM 37.4°F 35.6°F 93% 29.83 in 10.0 miles SSE 5.8 mph - N/A   Overcast
10:53 PM 37.9°F 36.0°F 93% 29.88 in 10.0 miles SSE 12.7 mph - N/A   Overcast
11:19 PM 39.2°F 35.6°F 87% 29.83 in 10.0 miles South 12.7 mph - N/A   Mostly Cloudy
11:39 PM 39.2°F 35.6°F 87% 29.83 in 10.0 miles SE 6.9 mph - N/A   Mostly Cloudy
11:53 PM 39.0°F 36.0°F 89% 29.88 in 10.0 miles SE 5.8 mph - N/A   Overcast
Moon Phase
Jan. 08 Jan. 11 Jan. 18 Jan. 26 Feb. 03
Sunrise:07:37 AM (PST) Moon Rise:04:15 AM (PST)1/8
Sunset:04:15 PM (PST) Moon Set:01:22 PM (PST)1/8

Copyright © 2014 The Weather Underground, Inc.